FW9568 Weather Reports


Display with metric or nautical units.
time (UTC)temp
F
wind
direction
speed
MPH
gust
MPH
rain 1hr
in
rain 24hr
in
rain mn
in
humidity
%
barometer
mb
20260503032703 52 0 0.0 0.0 0.00 0.00 0.00 36 1020.0
20260503031803 53 0 0.0 0.0 0.00 0.00 0.00 35 1019.9
20260503030903 54 0 0.0 0.0 0.00 0.00 0.00 34 1019.8
20260503030003 54 0 0.0 0.0 0.00 0.00 0.00 33 1019.7
20260503025403 55 0 0.0 0.0 0.00 0.00 0.00 32 1019.7
20260503024503 56 0 0.0 0.0 0.00 0.00 0.00 30 1019.6
20260503023603 56 0 0.0 0.0 0.00 0.00 0.00 28 1019.4
20260503022703 57 100 1.0 3.0 0.00 0.00 0.00 27 1019.3
20260503021803 58 104 1.0 4.0 0.00 0.00 0.00 26 1019.2
20260503020903 59 108 1.0 2.0 0.00 0.00 0.00 27 1019.3
20260503020217 59 102 1.0 3.0 0.00 0.00 0.00 26 1019.2
20260503015403 60 95 1.0 3.0 0.00 0.00 0.00 25 1019.2
20260503014503 61 100 1.0 2.0 0.00 0.00 0.00 25 1019.2
20260503013603 62 102 2.0 6.0 0.00 0.00 0.00 24 1019.0
20260503012919 62 108 2.0 4.0 0.00 0.00 0.00 23 1018.9
20260503011803 63 95 2.0 4.0 0.00 0.00 0.00 22 1018.9
20260503010903 64 100 2.0 5.0 0.00 0.00 0.00 21 1019.0
20260503010003 65 107 2.0 6.0 0.00 0.00 0.00 21 1019.0
20260503005403 65 106 2.0 6.0 0.00 0.00 0.00 21 1019.0
20260503004716 66 103 1.0 4.0 0.00 0.00 0.00 21 1019.1
20260503003819 66 120 2.0 5.0 0.00 0.00 0.00 21 1019.0
20260503002703 66 111 2.0 7.0 0.00 0.00 0.00 21 1019.0
20260503001803 67 111 1.0 7.0 0.00 0.00 0.00 20 1018.8
20260503001117 67 165 1.0 4.0 0.00 0.00 0.00 22 1019.0
20260503000003 67 117 2.0 5.0 0.00 0.00 0.00 22 1019.0
20260502235403 67 102 2.0 7.0 0.00 0.00 0.00 22 1019.2
20260502234503 67 113 2.0 8.0 0.00 0.00 0.00 22 1019.2
20260502233819 68 112 2.0 8.0 0.00 0.00 0.00 23 1019.3
20260502232703 68 124 1.0 6.0 0.00 0.00 0.00 23 1019.2
20260502232017 68 111 2.0 8.0 0.00 0.00 0.00 22 1019.4
20260502231117 68 109 2.0 8.0 0.00 0.00 0.00 22 1019.4
20260502230003 68 104 2.0 7.0 0.00 0.00 0.00 20 1019.6
20260502225403 68 98 2.0 7.0 0.00 0.00 0.00 22 1019.5
20260502224503 68 98 2.0 6.0 0.00 0.00 0.00 22 1019.5
20260502223818 68 106 2.0 6.0 0.00 0.00 0.00 21 1019.5
20260502222703 68 83 3.0 8.0 0.00 0.00 0.00 21 1019.4
20260502221803 68 105 2.0 6.0 0.00 0.00 0.00 22 1019.7
20260502220903 68 102 2.0 7.0 0.00 0.00 0.00 22 1019.6
20260502220003 68 82 2.0 7.0 0.00 0.00 0.00 22 1019.8
20260502215403 68 92 3.0 9.0 0.00 0.00 0.00 23 1019.9
20260502214503 68 117 1.0 6.0 0.00 0.00 0.00 23 1020.3
20260502213603 68 106 2.0 8.0 0.00 0.00 0.00 22 1020.3
20260502212703 68 97 1.0 6.0 0.00 0.00 0.00 22 1020.4
20260502211803 68 108 2.0 7.0 0.00 0.00 0.00 22 1020.5
20260502211116 68 103 2.0 7.0 0.00 0.00 0.00 24 1020.6
20260502210215 68 101 3.0 8.0 0.00 0.00 0.00 24 1020.7
20260502205403 68 156 1.0 4.0 0.00 0.00 0.00 23 1020.8
20260502204503 68 105 3.0 10.0 0.00 0.00 0.00 22 1021.0
20260502203603 68 95 3.0 10.0 0.00 0.00 0.00 23 1021.0
20260502202703 69 110 2.0 6.0 0.00 0.00 0.00 23 1021.0
20260502201803 68 144 2.0 6.0 0.00 0.00 0.00 23 1021.1
20260502201116 68 103 2.0 5.0 0.00 0.00 0.00 23 1021.1
20260502200003 68 119 1.0 4.0 0.00 0.00 0.00 24 1021.1
20260502195619 68 152 2.0 6.0 0.00 0.00 0.00 27 1021.3
20260502194503 67 117 2.0 7.0 0.00 0.00 0.00 26 1021.3
20260502193603 67 93 3.0 8.0 0.00 0.00 0.00 27 1021.4
20260502192703 67 97 2.0 7.0 0.00 0.00 0.00 26 1021.6
20260502191803 66 132 2.0 4.0 0.00 0.00 0.00 28 1021.6
20260502190903 66 108 2.0 6.0 0.00 0.00 0.00 25 1021.9
20260502190003 65 239 2.0 6.0 0.00 0.00 0.00 28 1022.0
20260502185618 65 240 3.0 6.0 0.00 0.00 0.00 26 1022.0
20260502184503 65 109 2.0 8.0 0.00 0.00 0.00 26 1022.1
20260502183603 65 241 2.0 6.0 0.00 0.00 0.00 26 1022.2
20260502181803 64 241 2.0 4.0 0.00 0.00 0.00 26 1022.6
20260502180903 65 210 1.0 6.0 0.00 0.00 0.00 26 1022.7
20260502180219 65 93 1.0 4.0 0.00 0.00 0.00 24 1022.8
20260502163816 63 66 1.0 3.0 0.00 0.00 0.00 24 1023.3
20260502162703 62 99 2.0 4.0 0.00 0.00 0.00 29 1023.3
20260502162019 61 101 1.0 4.0 0.00 0.00 0.00 26 1023.3
20260502160903 60 155 0.0 2.0 0.00 0.00 0.00 28 1023.4
20260502160218 59 248 1.0 3.0 0.00 0.00 0.00 29 1023.4
20260502151803 58 302 0.0 2.0 0.00 0.00 0.00 29 1023.5
20260502150903 56 301 1.0 2.0 0.00 0.00 0.00 35 1023.6
20260502123603 38 300 2.0 5.0 0.00 0.00 0.00 56 1023.3
20260502122703 38 306 2.0 4.0 0.00 0.00 0.00 55 1023.1
20260502122017 38 305 2.0 3.0 0.00 0.00 0.00 55 1023.1
20260502121117 38 313 2.0 4.0 0.00 0.00 0.00 55 1023.1
20260502115403 38 306 2.0 4.0 0.00 0.00 0.00 54 1022.9
20260502114503 38 311 2.0 3.0 0.00 0.00 0.00 54 1023.0
20260502113603 38 307 2.0 5.0 0.00 0.00 0.00 54 1022.8
20260502112703 38 304 2.0 4.0 0.00 0.00 0.00 54 1022.8
20260502112017 38 304 2.0 4.0 0.00 0.00 0.00 54 1022.7
20260502111116 38 304 2.0 4.0 0.00 0.00 0.00 55 1022.8
20260502110003 38 305 2.0 4.0 0.00 0.00 0.00 55 1022.6
20260502105403 38 306 2.0 4.0 0.00 0.00 0.00 55 1022.8
20260502104503 38 305 2.0 6.0 0.00 0.00 0.00 55 1022.7
20260502103603 38 308 2.0 5.0 0.00 0.00 0.00 55 1022.6
20260502102703 39 306 2.0 5.0 0.00 0.00 0.00 54 1022.6
20260502101803 39 311 2.0 5.0 0.00 0.00 0.00 53 1022.7
20260502100903 40 294 2.0 6.0 0.00 0.00 0.00 52 1022.6
20260502090903 40 291 3.0 7.0 0.00 0.00 0.00 51 1022.6
20260502070903 40 300 3.0 6.0 0.00 0.01 0.00 54 1022.7
20260502070003 40 295 3.0 6.0 0.00 0.01 0.00 54 1022.7
20260502065403 40 294 2.0 6.0 0.00 0.01 0.00 54 1022.7
20260502064503 40 296 3.0 6.0 0.00 0.01 0.00 55 1022.6
20260502063603 40 292 3.0 6.0 0.00 0.01 0.00 56 1022.6
20260502062703 40 296 3.0 6.0 0.00 0.01 0.00 57 1022.4
20260502061803 41 295 2.0 5.0 0.00 0.01 0.00 58 1022.4
20260502060903 41 292 2.0 7.0 0.00 0.01 0.00 59 1022.4
20260502060004 41 295 2.0 4.0 0.00 0.01 0.00 59 1022.4
20260502055403 41 294 2.0 4.0 0.00 0.01 0.01 58 1022.4
20260502054503 42 298 2.0 5.0 0.00 0.01 0.01 58 1022.5
20260502053603 42 298 3.0 6.0 0.00 0.01 0.01 56 1022.3
20260502052703 43 297 2.0 5.0 0.00 0.01 0.01 55 1022.2
20260502051803 43 299 3.0 4.0 0.00 0.01 0.01 54 1022.2
20260502050903 44 295 3.0 7.0 0.00 0.01 0.01 54 1022.2
20260502050003 44 294 2.0 4.0 0.00 0.01 0.01 54 1022.2
20260502045403 44 296 3.0 7.0 0.00 0.01 0.01 54 1022.1
20260502044503 44 300 2.0 5.0 0.00 0.01 0.01 55 1022.0
20260502043603 44 309 1.0 4.0 0.00 0.01 0.01 58 1022.2
20260502042703 44 306 1.0 3.0 0.00 0.02 0.01 59 1022.2
20260502041803 44 317 1.0 2.0 0.00 0.02 0.01 58 1022.0
20260502040903 45 0 0.0 1.0 0.00 0.02 0.01 57 1021.9
20260502040003 45 0 0.0 0.0 0.00 0.02 0.01 58 1021.9
20260502035403 45 0 0.0 0.0 0.00 0.02 0.01 57 1022.0
20260502034503 45 0 0.0 0.0 0.00 0.02 0.01 58 1022.0
20260502033603 46 291 0.0 2.0 0.00 0.02 0.01 58 1021.8
20260502032919 46 300 1.0 3.0 0.00 0.02 0.01 58 1021.7